Albuquerque Double Eagle, NM

6:16 PM MDT on June 26, 2017 (GMT -0600)
Double Eagle Ii

Weather History for KAEG - July, 2013

Change the Weather History Date:

Friday, July 26, 2013

  Actual Average (KABQ) Record (KABQ)
Temperature  
Mean Temperature 72 °F -  
Max Temperature 84 °F 91 °F 102 °F (1978)
Min Temperature 59 °F 64 °F 50 °F (1913)
Cooling Degree Days 6    
Growing Degree Days 22 (Base 50)    
Moisture  
Dew Point 57 °F    
Average Humidity 74    
Maximum Humidity 100    
Minimum Humidity 35    
Precipitation  
Precipitation 0.13 in - - ()
Sea Level Pressure  
Sea Level Pressure 30.33 in    
Wind  
Wind Speed 11 mph (NE)    
Max Wind Speed 46 mph    
Max Gust Speed 51 mph    
Visibility 10 miles    
Events      
Averages and records for this station are not official NWS values.
T = Trace of Precipitation, MM = Missing Value Source: NWS Daily Summary

Daily Weather History Graph

Daily Weather History Graph

Search for Another Location

Airport or City:

Trip Planner

Search our weather history database for the weather conditions in past years. The results will help you decide how hot, cold, wet, or windy it might be!

Date:

Astronomy

Jul. 26, 2013 Rise Set
Actual Time 6:12 AM MDT 8:14 PM MDT
Civil Twilight 5:43 AM MDT 8:43 PM MDT
Nautical Twilight 5:09 AM MDT 9:17 PM MDT
Astronomical Twilight 4:32 AM MDT 9:54 PM MDT
Moon 10:44 PM MDT (7/26) 10:38 AM MDT (7/26)
Length of Visible Light 14h 59m
Length of Day
14h 02m
Waning Gibbous, 79% of the Moon is Illuminated
Jul 26
Waning Gibbous
Jul 29
Last Quarter
Aug 6
New
Aug 14
First Quarter
Aug 20
Full

Hourly Weather History & Observations

Time (MDT) Temp. Heat Index Dew Point Humidity Pressure Visibility Wind Dir Wind Speed Gust Speed Precip Events Conditions
12:15 AM 68.0 °F - 55.4 °F 64% 30.28 in 10.0 mi ENE 5.8 mph - N/A   Unknown
12:35 AM 66.2 °F - 57.2 °F 73% 30.29 in 10.0 mi NE 11.5 mph - N/A   Unknown
12:55 AM 66.2 °F - 57.2 °F 73% 30.30 in 10.0 mi ENE 11.5 mph 16.1 mph N/A   Unknown
1:15 AM 66.2 °F - 55.4 °F 68% 30.33 in 10.0 mi NE 21.9 mph 28.8 mph N/A   Unknown
1:35 AM 64.4 °F - 55.4 °F 73% 30.33 in 10.0 mi NE 20.7 mph - N/A   Unknown
1:55 AM 62.6 °F - 57.2 °F 82% 30.33 in 10.0 mi NE 16.1 mph - N/A   Unknown
2:15 AM 64.4 °F - 57.2 °F 77% 30.34 in 10.0 mi NE 16.1 mph - N/A   Unknown
2:35 AM 62.6 °F - 57.2 °F 82% 30.33 in 10.0 mi NE 13.8 mph - N/A   Unknown
2:55 AM 62.6 °F - 57.2 °F 82% 30.34 in 10.0 mi North 17.3 mph - N/A   Unknown
3:15 AM 60.8 °F - 60.8 °F 100% 30.31 in 2.5 mi East 10.4 mph - 0.13 in   Unknown
3:35 AM 62.6 °F - 62.6 °F 100% 30.31 in 10.0 mi NNE 10.4 mph - 0.13 in   Unknown
3:55 AM 62.6 °F - 62.6 °F 100% 30.32 in 10.0 mi North 8.1 mph - 0.13 in   Unknown
4:15 AM 62.6 °F - 62.6 °F 100% 30.31 in 10.0 mi North 8.1 mph - N/A   Unknown
4:35 AM 62.6 °F - 59.0 °F 88% 30.31 in 10.0 mi North 6.9 mph - N/A   Unknown
4:55 AM 62.6 °F - 59.0 °F 88% 30.32 in 10.0 mi NNW 8.1 mph - N/A   Unknown
5:15 AM 62.6 °F - 57.2 °F 82% 30.32 in 10.0 mi NNW 6.9 mph - N/A   Unknown
5:35 AM 62.6 °F - 57.2 °F 82% 30.32 in 10.0 mi North 6.9 mph - N/A   Unknown
5:50 AM 62.6 °F - 57.2 °F 82% 30.32 in 10.0 mi NNW 6.9 mph - N/A   Scattered Clouds
6:50 AM 60.8 °F - 57.2 °F 88% 30.34 in 10.0 mi Variable 4.6 mph - N/A   Scattered Clouds
7:50 AM 64.4 °F - 55.4 °F 73% 30.35 in 10.0 mi North 8.1 mph - N/A   Clear
8:50 AM 66.2 °F - 57.2 °F 73% 30.37 in 10.0 mi North 10.4 mph - N/A   Partly Cloudy
9:50 AM 69.8 °F - 57.2 °F 64% 30.37 in 10.0 mi ENE 5.8 mph - N/A   Partly Cloudy
10:50 AM 73.4 °F - 55.4 °F 53% 30.37 in 10.0 mi East 5.8 mph - N/A   Partly Cloudy
11:50 AM 75.2 °F - 53.6 °F 47% 30.36 in 10.0 mi Variable 5.8 mph - N/A   Scattered Clouds
12:50 PM 77.0 °F - 55.4 °F 47% 30.33 in 10.0 mi SW 3.5 mph - N/A   Scattered Clouds
1:50 PM 80.6 °F 80.5 °F 55.4 °F 42% 30.30 in 10.0 mi Calm Calm - N/A   Scattered Clouds
2:50 PM 80.6 °F 80.3 °F 53.6 °F 39% 30.28 in 10.0 mi South 6.9 mph - N/A   Mostly Cloudy
3:50 PM 82.4 °F 81.4 °F 53.6 °F 37% 30.27 in 10.0 mi Calm Calm - N/A   Mostly Cloudy
4:50 PM 84.2 °F 82.8 °F 53.6 °F 35% 30.25 in 10.0 mi South 11.5 mph - N/A   Mostly Cloudy
5:50 PM 82.4 °F - 51.8 °F 35% 30.26 in 10.0 mi South 13.8 mph - N/A   Mostly Cloudy
7:30 PM 68.0 °F - 53.6 °F 60% 30.32 in 1.0 mi NE 46.0 mph 50.6 mph N/A   Widespread Dust
10:15 PM 59.0 °F - 59.0 °F 100% 30.40 in 10.0 mi ENE 15.0 mph - N/A   Unknown
10:35 PM 59.0 °F - 59.0 °F 100% 30.40 in 10.0 mi East 9.2 mph - N/A   Unknown
10:55 PM 60.8 °F - 57.2 °F 88% 30.39 in 10.0 mi SE 9.2 mph - N/A   Unknown
11:15 PM 59.0 °F - 59.0 °F 100% 30.38 in 10.0 mi SSE 12.7 mph - N/A   Unknown
11:35 PM 60.8 °F - 55.4 °F 82% 30.38 in 10.0 mi SE 9.2 mph - N/A   Unknown
11:55 PM 62.6 °F - 53.6 °F 72% 30.38 in 10.0 mi SSE 13.8 mph - N/A   Unknown